QPF
0.01 0.01 0.02 0.02 0.03 0.02 0.02 0.02 0.01 0.01 0.01 0.01 0.01 0.01 0.01 0.01 0.01 0.02 0.02 0.02 0.04 0.04 0.05 0.07 0.08 0.08 0.06 0.05 0.05 0.05 0.04 0.03 0.02 0.01 0.02 0.03 0.04 0.06 0.07 0.07 0.06 0.03 0.02
0.04 0.04 0.03 0.03 0.03 0.03 0.03 0.03 0.02 0.02 0.02 0.02 0.02 0.02 0.01 0.01 0.02 0.02 0.02 0.03 0.03 0.04 0.04 0.06 0.06 0.06 0.05 0.04 0.04 0.04 0.03 0.03 0.02 0.02 0.02 0.03 0.04 0.06 0.08 0.09 0.07 0.04 0.03
0.08 0.10 0.08 0.06 0.05 0.05 0.05 0.05 0.05 0.05 0.04 0.04 0.03 0.03 0.03 0.03 0.03 0.03 0.04 0.04 0.04 0.03 0.04 0.05 0.06 0.05 0.05 0.04 0.04 0.03 0.03 0.03 0.03 0.02 0.02 0.02 0.05 0.07 0.08 0.06 0.06 0.06 0.04
0.06 0.08 0.09 0.08 0.07 0.07 0.07 0.06 0.05 0.05 0.05 0.04 0.04 0.05 0.05 0.05 0.05 0.05 0.05 0.07 0.06 0.06 0.06 0.06 0.06 0.06 0.05 0.04 0.05 0.04 0.03 0.03 0.03 0.03 0.03 0.03 0.05 0.05 0.05 0.04 0.04 0.04 0.05
0.05 0.07 0.08 0.06 0.05 0.04 0.04 0.04 0.05 0.06 0.05 0.05 0.03 0.03 0.04 0.04 0.04 0.04 0.05 0.06 0.07 0.07 0.07 0.06 0.06 0.07 0.06 0.06 0.06 0.05 0.05 0.04 0.03 0.03 0.03 0.04 0.05 0.05 0.04 0.03 0.03 0.05 0.06
0.03 0.02 0.02 0.03 0.03 0.03 0.03 0.03 0.03 0.03 0.03 0.02 0.02 0.02 0.03 0.03 0.03 0.04 0.04 0.04 0.05 0.05 0.07 0.09 0.11 0.14 0.15 0.14 0.12 0.10 0.08 0.05 0.03 0.03 0.03 0.04 0.05 0.05 0.06 0.06 0.04 0.05 0.06
0.01 0.02 0.02 0.02 0.02 0.02 0.03 0.03 0.02 0.02 0.03 0.03 0.03 0.03 0.03 0.02 0.02 0.03 0.03 0.03 0.05 0.07 0.09 0.11 0.13 0.13 0.16 0.16 0.14 0.11 0.08 0.05 0.04 0.03 0.03 0.03 0.04 0.05 0.07 0.07 0.05 0.03 0.04
0.03 0.04 0.04 0.04 0.03 0.03 0.02 0.02 0.02 0.02 0.03 0.02 0.02 0.02 0.02 0.02 0.03 0.03 0.04 0.05 0.05 0.09 0.12 0.13 0.14 0.15 0.16 0.17 0.15 0.11 0.09 0.07 0.05 0.03 0.03 0.02 0.03 0.03 0.04 0.05 0.05 0.04 0.03
0.04 0.04 0.05 0.04 0.03 0.03 0.02 0.02 0.02 0.02 0.02 0.01 0.02 0.02 0.02 0.03 0.04 0.03 0.04 0.04 0.05 0.08 0.11 0.11 0.12 0.12 0.12 0.13 0.12 0.09 0.06 0.04 0.04 0.04 0.03 0.03 0.03 0.04 0.04 0.04 0.04 0.05 0.04
0.02 0.02 0.02 0.02 0.02 0.02 0.02 0.03 0.03 0.03 0.03 0.04 0.04 0.04 0.04 0.04 0.05 0.05 0.05 0.04 0.05 0.06 0.06 0.06 0.07 0.06 0.06 0.07 0.06 0.05 0.04 0.03 0.03 0.03 0.04 0.04 0.04 0.04 0.06 0.07 0.05 0.05 0.05
0.01 0.01 0.01 0.01 0.02 0.02 0.03 0.04 0.05 0.05 0.05 0.05 0.05 0.05 0.05 0.05 0.06 0.06 0.06 0.06 0.06 0.05 0.05 0.05 0.06 0.05 0.06 0.07 0.06 0.04 0.04 0.04 0.04 0.03 0.03 0.04 0.04 0.04 0.05 0.07 0.08 0.06 0.05
0.01 0.01 0.01 0.02 0.03 0.02 0.02 0.03 0.04 0.05 0.06 0.06 0.07 0.06 0.06 0.06 0.06 0.06 0.05 0.06 0.06 0.05 0.05 0.05 0.05 0.06 0.07 0.07 0.06 0.05 0.05 0.04 0.04 0.05 0.05 0.04 0.03 0.04 0.05 0.08 0.09 0.09 0.07
0.01 0.01 0.02 0.02 0.03 0.03 0.03 0.03 0.04 0.05 0.04 0.04 0.05 0.05 0.06 0.06 0.05 0.06 0.06 0.05 0.05 0.04 0.04 0.05 0.06 0.07 0.08 0.08 0.09 0.09 0.08 0.08 0.08 0.08 0.06 0.06 0.05 0.05 0.05 0.06 0.07 0.08 0.08
0.01 0.01 0.02 0.02 0.02 0.03 0.03 0.04 0.04 0.05 0.05 0.05 0.05 0.04 0.03 0.04 0.05 0.05 0.04 0.04 0.03 0.03 0.04 0.04 0.04 0.06 0.08 0.07 0.08 0.08 0.07 0.06 0.07 0.07 0.08 0.08 0.06 0.06 0.05 0.04 0.04 0.05 0.05
0.02 0.01 0.02 0.03 0.03 0.04 0.05 0.05 0.06 0.06 0.06 0.06 0.06 0.05 0.05 0.05 0.05 0.06 0.05 0.04 0.04 0.04 0.04 0.03 0.03 0.03 0.04 0.06 0.05 0.05 0.05 0.05 0.05 0.03 0.04 0.04 0.03 0.03 0.03 0.03 0.03 0.03 0.02
0.02 0.02 0.03 0.03 0.04 0.05 0.06 0.07 0.07 0.08 0.10 0.10 0.11 0.12 0.12 0.13 0.14 0.14 0.13 0.10 0.09 0.08 0.06 0.05 0.03 0.03 0.03 0.04 0.06 0.05 0.03 0.04 0.03 0.03 0.04 0.05 0.04 0.04 0.03 0.03 0.03 0.03 0.03
0.04 0.04 0.05 0.05 0.05 0.06 0.08 0.09 0.09 0.09 0.10 0.12 0.13 0.14 0.15 0.15 0.14 0.13 0.14 0.14 0.11 0.08 0.06 0.06 0.05 0.04 0.04 0.04 0.05 0.05 0.04 0.04 0.03 0.03 0.04 0.03 0.03 0.03 0.03 0.03 0.03 0.04 0.06
0.06 0.05 0.06 0.06 0.07 0.07 0.09 0.11 0.11 0.11 0.11 0.11 0.13 0.15 0.15 0.12 0.10 0.09 0.09 0.09 0.09 0.08 0.07 0.06 0.05 0.05 0.04 0.04 0.04 0.03 0.04 0.05 0.05 0.04 0.04 0.04 0.04 0.04 0.04 0.03 0.04 0.05 0.06
0.04 0.05 0.06 0.06 0.07 0.08 0.09 0.11 0.11 0.12 0.11 0.13 0.15 0.15 0.16 0.12 0.10 0.10 0.09 0.07 0.06 0.07 0.07 0.07 0.06 0.05 0.05 0.04 0.04 0.04 0.05 0.05 0.05 0.04 0.04 0.03 0.03 0.04 0.04 0.05 0.05 0.05 0.05
0.04 0.05 0.06 0.08 0.09 0.09 0.09 0.09 0.08 0.09 0.09 0.10 0.12 0.13 0.14 0.12 0.10 0.10 0.08 0.06 0.04 0.03 0.04 0.05 0.05 0.06 0.05 0.04 0.04 0.04 0.04 0.03 0.04 0.04 0.03 0.03 0.02 0.02 0.03 0.03 0.03 0.03 0.03
0.05 0.04 0.05 0.06 0.09 0.13 0.13 0.09 0.09 0.08 0.05 0.05 0.07 0.10 0.12 0.10 0.09 0.08 0.06 0.05 0.04 0.03 0.03 0.03 0.04 0.04 0.05 0.04 0.04 0.04 0.03 0.03 0.02 0.02 0.02 0.02 0.02 0.02 0.02 0.03 0.02 0.02 0.03
0.06 0.06 0.06 0.06 0.06 0.09 0.11 0.10 0.12 0.07 0.05 0.05 0.06 0.08 0.09 0.08 0.06 0.05 0.04 0.03 0.02 0.02 0.02 0.03 0.03 0.04 0.04 0.04 0.04 0.04 0.04 0.03 0.02 0.01 0.01 0.01 0.01 0.01 0.02 0.03 0.04 0.02 0.02
0.07 0.09 0.10 0.09 0.10 0.08 0.09 0.15 0.12 0.05 0.04 0.04 0.04 0.05 0.05 0.04 0.04 0.04 0.03 0.02 0.01 0.01 0.01 0.01 0.02 0.03 0.04 0.03 0.03 0.05 0.05 0.04 0.03 0.02 0.01 0.01 0.01 0.01 0.01 0.02 0.03 0.02 0.01
0.08 0.09 0.09 0.08 0.08 0.07 0.11 0.16 0.09 0.06 0.05 0.04 0.03 0.03 0.02 0.02 0.02 0.02 0.02 0.01 0.01 0.02 0.02 0.03 0.04 0.04 0.04 0.05 0.07 0.08 0.08 0.06 0.04 0.02 0.02 0.01 0.01 0.01 0.01 0.01 0.01 0.01 0.01
0.07 0.06 0.06 0.06 0.06 0.08 0.13 0.13 0.07 0.06 0.04 0.04 0.04 0.02 0.01 0.01 0.01 0.01 0.01 0.03 0.04 0.05 0.05 0.05 0.04 0.04 0.03 0.03 0.04 0.06 0.07 0.05 0.03 0.02 0.01 0.01 0.01 0.01 0.01 0.01 0.01 0.01 0.01
0.07 0.06 0.06 0.06 0.06 0.06 0.08 0.06 0.04 0.04 0.04 0.04 0.03 0.02 0.02 0.01 0.02 0.03 0.03 0.04 0.04 0.04 0.03 0.02 0.01 0.01 0.01 0.00 0.01 0.01 0.02 0.02 0.02 0.01 0.01 0.01 0.01 0.01 0.01 0.01 0.01 0.01 0.01
MSLP
1015.25 1015.41 1015.60 1015.78 1015.92 1015.99 1015.99 1015.93 1015.84 1015.73 1015.63 1015.56 1015.53 1015.53 1015.58 1015.65 1015.76 1015.90 1016.07 1016.26 1016.46 1016.65 1016.83 1016.97 1017.07 1017.11 1017.10 1017.06 1016.98 1016.89 1016.79 1016.69 1016.57 1016.43 1016.24 1015.97 1015.61 1015.17 1014.65 1014.08 1013.50 1012.96 1012.48
1015.73 1015.88 1016.06 1016.22 1016.35 1016.42 1016.44 1016.41 1016.34 1016.27 1016.20 1016.15 1016.14 1016.17 1016.24 1016.35 1016.49 1016.66 1016.86 1017.08 1017.29 1017.48 1017.64 1017.74 1017.78 1017.75 1017.68 1017.56 1017.43 1017.30 1017.19 1017.09 1017.00 1016.89 1016.73 1016.50 1016.16 1015.72 1015.19 1014.59 1013.96 1013.36 1012.82
1016.17 1016.34 1016.52 1016.68 1016.81 1016.89 1016.92 1016.91 1016.89 1016.85 1016.82 1016.82 1016.84 1016.90 1016.99 1017.12 1017.29 1017.48 1017.70 1017.93 1018.15 1018.33 1018.46 1018.52 1018.51 1018.43 1018.29 1018.11 1017.93 1017.76 1017.63 1017.53 1017.45 1017.37 1017.25 1017.04 1016.74 1016.32 1015.79 1015.19 1014.54 1013.89 1013.31
1016.59 1016.80 1016.99 1017.17 1017.30 1017.39 1017.45 1017.47 1017.48 1017.49 1017.51 1017.55 1017.60 1017.69 1017.80 1017.95 1018.12 1018.33 1018.54 1018.77 1018.97 1019.14 1019.24 1019.27 1019.21 1019.08 1018.89 1018.66 1018.43 1018.23 1018.08 1017.97 1017.90 1017.83 1017.74 1017.57 1017.30 1016.91 1016.41 1015.82 1015.18 1014.53 1013.92
1017.00 1017.26 1017.49 1017.68 1017.82 1017.93 1018.01 1018.07 1018.12 1018.18 1018.25 1018.33 1018.42 1018.53 1018.65 1018.79 1018.96 1019.14 1019.33 1019.53 1019.70 1019.84 1019.91 1019.91 1019.82 1019.65 1019.43 1019.17 1018.91 1018.68 1018.50 1018.38 1018.30 1018.24 1018.16 1018.02 1017.78 1017.44 1016.98 1016.43 1015.81 1015.18 1014.58
1017.43 1017.74 1018.00 1018.21 1018.37 1018.49 1018.58 1018.68 1018.78 1018.88 1019.00 1019.12 1019.24 1019.36 1019.47 1019.60 1019.73 1019.86 1020.01 1020.16 1020.29 1020.38 1020.43 1020.40 1020.29 1020.11 1019.87 1019.59 1019.32 1019.07 1018.87 1018.73 1018.63 1018.56 1018.48 1018.35 1018.15 1017.84 1017.43 1016.93 1016.37 1015.78 1015.21
1017.86 1018.22 1018.51 1018.73 1018.90 1019.03 1019.15 1019.27 1019.41 1019.56 1019.72 1019.87 1020.01 1020.13 1020.23 1020.31 1020.39 1020.47 1020.55 1020.63 1020.71 1020.76 1020.77 1020.73 1020.61 1020.43 1020.19 1019.92 1019.64 1019.38 1019.16 1018.99 1018.87 1018.78 1018.69 1018.56 1018.37 1018.10 1017.73 1017.29 1016.78 1016.25 1015.73
1018.30 1018.70 1019.00 1019.22 1019.39 1019.54 1019.67 1019.83 1020.00 1020.18 1020.37 1020.55 1020.69 1020.81 1020.88 1020.91 1020.93 1020.94 1020.95 1020.97 1020.98 1020.99 1020.98 1020.92 1020.81 1020.64 1020.42 1020.16 1019.89 1019.63 1019.40 1019.20 1019.05 1018.92 1018.80 1018.66 1018.46 1018.21 1017.88 1017.48 1017.04 1016.57 1016.11
1018.71 1019.13 1019.44 1019.66 1019.84 1019.99 1020.14 1020.31 1020.51 1020.72 1020.94 1021.13 1021.27 1021.37 1021.41 1021.40 1021.35 1021.29 1021.23 1021.19 1021.15 1021.12 1021.09 1021.03 1020.93 1020.79 1020.60 1020.37 1020.11 1019.85 1019.61 1019.39 1019.20 1019.03 1018.87 1018.70 1018.49 1018.24 1017.93 1017.57 1017.17 1016.76 1016.35
1019.08 1019.50 1019.81 1020.03 1020.21 1020.36 1020.53 1020.72 1020.94 1021.18 1021.40 1021.60 1021.74 1021.82 1021.83 1021.78 1021.68 1021.57 1021.46 1021.36 1021.29 1021.23 1021.18 1021.13 1021.05 1020.93 1020.77 1020.57 1020.34 1020.09 1019.84 1019.60 1019.38 1019.17 1018.97 1018.76 1018.52 1018.26 1017.95 1017.61 1017.25 1016.88 1016.51
1019.36 1019.78 1020.09 1020.32 1020.50 1020.67 1020.85 1021.06 1021.29 1021.54 1021.77 1021.97 1022.11 1022.17 1022.16 1022.08 1021.96 1021.81 1021.66 1021.53 1021.43 1021.36 1021.31 1021.26 1021.20 1021.11 1020.98 1020.81 1020.60 1020.36 1020.11 1019.86 1019.62 1019.37 1019.13 1018.89 1018.62 1018.34 1018.02 1017.69 1017.34 1016.99 1016.65
1019.56 1019.97 1020.28 1020.51 1020.71 1020.89 1021.09 1021.31 1021.56 1021.81 1022.05 1022.24 1022.37 1022.43 1022.41 1022.32 1022.19 1022.03 1021.87 1021.73 1021.62 1021.55 1021.50 1021.45 1021.40 1021.33 1021.22 1021.07 1020.88 1020.66 1020.42 1020.17 1019.91 1019.65 1019.39 1019.11 1018.82 1018.52 1018.19 1017.85 1017.50 1017.16 1016.84
1019.66 1020.07 1020.38 1020.63 1020.84 1021.05 1021.26 1021.49 1021.74 1021.99 1022.23 1022.42 1022.55 1022.60 1022.59 1022.51 1022.38 1022.23 1022.08 1021.95 1021.85 1021.77 1021.72 1021.68 1021.63 1021.56 1021.46 1021.33 1021.16 1020.95 1020.73 1020.48 1020.23 1019.97 1019.70 1019.42 1019.12 1018.80 1018.47 1018.12 1017.77 1017.42 1017.10
1019.69 1020.09 1020.42 1020.68 1020.92 1021.14 1021.36 1021.60 1021.85 1022.09 1022.31 1022.50 1022.62 1022.69 1022.68 1022.62 1022.52 1022.40 1022.27 1022.16 1022.07 1022.00 1021.94 1021.89 1021.84 1021.76 1021.66 1021.53 1021.37 1021.18 1020.98 1020.76 1020.53 1020.29 1020.03 1019.76 1019.47 1019.15 1018.82 1018.46 1018.10 1017.75 1017.42
1019.66 1020.06 1020.40 1020.68 1020.93 1021.16 1021.40 1021.63 1021.86 1022.09 1022.30 1022.47 1022.59 1022.66 1022.68 1022.65 1022.58 1022.50 1022.40 1022.31 1022.23 1022.16 1022.10 1022.03 1021.96 1021.86 1021.75 1021.62 1021.46 1021.29 1021.11 1020.92 1020.73 1020.53 1020.31 1020.07 1019.80 1019.50 1019.18 1018.83 1018.47 1018.11 1017.77
1019.60 1020.00 1020.34 1020.64 1020.90 1021.14 1021.36 1021.58 1021.80 1022.00 1022.18 1022.34 1022.46 1022.53 1022.57 1022.57 1022.54 1022.49 1022.42 1022.35 1022.28 1022.21 1022.13 1022.04 1021.94 1021.82 1021.69 1021.55 1021.40 1021.24 1021.09 1020.94 1020.79 1020.63 1020.46 1020.26 1020.03 1019.77 1019.47 1019.14 1018.79 1018.43 1018.09
1019.52 1019.92 1020.26 1020.56 1020.82 1021.06 1021.27 1021.47 1021.65 1021.82 1021.98 1022.11 1022.22 1022.30 1022.35 1022.37 1022.37 1022.35 1022.31 1022.26 1022.20 1022.11 1022.02 1021.90 1021.77 1021.63 1021.47 1021.32 1021.17 1021.03 1020.90 1020.79 1020.68 1020.58 1020.45 1020.31 1020.12 1019.90 1019.63 1019.33 1019.00 1018.66 1018.32
1019.42 1019.81 1020.16 1020.45 1020.70 1020.92 1021.11 1021.28 1021.43 1021.57 1021.70 1021.80 1021.90 1021.97 1022.03 1022.07 1022.09 1022.09 1022.07 1022.03 1021.96 1021.87 1021.76 1021.62 1021.46 1021.30 1021.12 1020.96 1020.82 1020.69 1020.59 1020.50 1020.44 1020.37 1020.29 1020.19 1020.05 1019.86 1019.63 1019.36 1019.06 1018.75 1018.43
1019.29 1019.67 1020.00 1020.29 1020.53 1020.73 1020.89 1021.03 1021.15 1021.26 1021.35 1021.44 1021.52 1021.59 1021.65 1021.69 1021.72 1021.73 1021.72 1021.68 1021.61 1021.51 1021.38 1021.22 1021.05 1020.87 1020.69 1020.53 1020.39 1020.27 1020.19 1020.13 1020.09 1020.05 1020.00 1019.92 1019.81 1019.66 1019.47 1019.24 1018.98 1018.70 1018.42
1019.11 1019.48 1019.80 1020.07 1020.29 1020.47 1020.62 1020.73 1020.83 1020.91 1020.98 1021.04 1021.10 1021.16 1021.21 1021.26 1021.29 1021.30 1021.28 1021.24 1021.16 1021.06 1020.92 1020.76 1020.58 1020.40 1020.23 1020.07 1019.94 1019.84 1019.77 1019.72 1019.69 1019.66 1019.62 1019.56 1019.46 1019.34 1019.18 1018.98 1018.76 1018.53 1018.29
1018.86 1019.22 1019.53 1019.78 1019.99 1020.16 1020.29 1020.38 1020.46 1020.52 1020.58 1020.62 1020.67 1020.71 1020.76 1020.79 1020.81 1020.82 1020.79 1020.75 1020.67 1020.56 1020.43 1020.28 1020.11 1019.95 1019.79 1019.66 1019.54 1019.45 1019.38 1019.34 1019.30 1019.26 1019.21 1019.14 1019.05 1018.93 1018.79 1018.63 1018.45 1018.27 1018.10
1018.54 1018.89 1019.18 1019.43 1019.63 1019.79 1019.91 1019.99 1020.06 1020.11 1020.15 1020.18 1020.22 1020.25 1020.28 1020.30 1020.31 1020.31 1020.28 1020.23 1020.16 1020.06 1019.94 1019.82 1019.68 1019.55 1019.42 1019.31 1019.22 1019.14 1019.07 1019.01 1018.96 1018.90 1018.82 1018.73 1018.63 1018.51 1018.38 1018.24 1018.11 1017.98 1017.87
1018.16 1018.50 1018.79 1019.03 1019.22 1019.37 1019.48 1019.56 1019.62 1019.66 1019.69 1019.72 1019.74 1019.76 1019.78 1019.79 1019.79 1019.78 1019.76 1019.71 1019.66 1019.58 1019.50 1019.41 1019.32 1019.23 1019.15 1019.07 1019.00 1018.93 1018.86 1018.79 1018.70 1018.61 1018.50 1018.37 1018.24 1018.11 1017.98 1017.87 1017.77 1017.70 1017.65
1017.74 1018.07 1018.35 1018.58 1018.77 1018.91 1019.01 1019.08 1019.13 1019.17 1019.19 1019.22 1019.23 1019.25 1019.26 1019.27 1019.27 1019.26 1019.25 1019.22 1019.19 1019.16 1019.12 1019.08 1019.04 1019.01 1018.97 1018.93 1018.89 1018.83 1018.76 1018.66 1018.55 1018.41 1018.26 1018.10 1017.94 1017.79 1017.66 1017.55 1017.49 1017.46 1017.47
1017.33 1017.64 1017.91 1018.12 1018.29 1018.42 1018.51 1018.57 1018.61 1018.64 1018.66 1018.67 1018.69 1018.70 1018.72 1018.73 1018.74 1018.76 1018.77 1018.78 1018.79 1018.81 1018.83 1018.85 1018.87 1018.89 1018.91 1018.90 1018.89 1018.84 1018.76 1018.65 1018.50 1018.33 1018.13 1017.93 1017.74 1017.56 1017.43 1017.33 1017.29 1017.29 1017.34
1016.92 1017.22 1017.47 1017.66 1017.81 1017.92 1017.99 1018.03 1018.05 1018.07 1018.08 1018.09 1018.11 1018.13 1018.16 1018.20 1018.25 1018.30 1018.36 1018.42 1018.49 1018.57 1018.65 1018.73 1018.82 1018.89 1018.95 1018.99 1018.99 1018.95 1018.87 1018.74 1018.56 1018.35 1018.12 1017.89 1017.66 1017.47 1017.32 1017.22 1017.18 1017.21 1017.28
Thickness
5802 5799 5796 5793 5791 5790 5787 5785 5783 5782 5780 5778 5776 5774 5772 5770 5769 5766 5763 5761 5758 5756 5755 5752 5750 5748 5746 5744 5742 5738 5735 5731 5725 5726 5727 5728 5727 5725 5724 5722 5720 5718 5716
5799 5795 5792 5790 5788 5786 5784 5783 5782 5779 5778 5775 5774 5771 5769 5767 5765 5762 5760 5758 5755 5752 5751 5749 5747 5745 5742 5740 5737 5735 5732 5729 5724 5720 5720 5720 5720 5719 5718 5716 5715 5713 5711
5797 5792 5789 5786 5784 5782 5781 5780 5779 5777 5774 5772 5770 5767 5766 5764 5762 5760 5757 5754 5752 5750 5748 5745 5743 5741 5737 5735 5733 5730 5727 5725 5721 5716 5714 5714 5713 5712 5710 5709 5708 5706 5705
5793 5789 5786 5783 5781 5780 5778 5777 5775 5773 5770 5768 5766 5764 5762 5761 5759 5757 5754 5751 5749 5747 5745 5743 5740 5738 5735 5732 5729 5725 5722 5719 5715 5711 5707 5706 5705 5705 5702 5699 5698 5698 5698
5789 5785 5783 5781 5780 5777 5775 5773 5771 5769 5767 5765 5762 5760 5758 5757 5755 5753 5750 5748 5745 5742 5741 5739 5737 5736 5734 5730 5727 5722 5718 5713 5708 5703 5700 5698 5697 5695 5693 5692 5689 5689 5690
5784 5781 5779 5777 5775 5772 5770 5768 5766 5764 5762 5760 5758 5755 5753 5753 5752 5750 5747 5743 5740 5737 5735 5734 5733 5731 5729 5726 5723 5719 5714 5709 5702 5698 5694 5691 5691 5689 5687 5685 5681 5679 5678
5778 5776 5774 5772 5769 5768 5766 5763 5761 5759 5757 5754 5752 5750 5748 5747 5747 5745 5742 5739 5735 5733 5730 5728 5727 5725 5722 5718 5716 5713 5709 5706 5702 5696 5690 5688 5686 5685 5682 5678 5676 5673 5672
5771 5769 5767 5766 5764 5762 5760 5757 5755 5753 5751 5749 5747 5745 5743 5743 5742 5739 5737 5733 5730 5728 5725 5723 5720 5717 5715 5711 5707 5704 5701 5699 5697 5694 5690 5687 5685 5682 5679 5675 5672 5669 5669
5763 5762 5761 5759 5757 5756 5753 5752 5750 5748 5746 5744 5741 5739 5737 5736 5735 5733 5730 5726 5722 5720 5720 5718 5714 5711 5709 5704 5700 5696 5694 5691 5690 5688 5685 5682 5680 5677 5673 5668 5664 5660 5658
5757 5757 5756 5754 5751 5749 5748 5746 5745 5743 5740 5738 5735 5734 5731 5729 5728 5726 5723 5719 5715 5713 5711 5710 5708 5705 5702 5697 5693 5689 5685 5683 5681 5679 5677 5675 5672 5670 5667 5663 5659 5654 5651
5753 5751 5749 5748 5746 5744 5741 5740 5738 5735 5733 5730 5728 5727 5725 5723 5721 5718 5715 5712 5708 5705 5703 5702 5701 5698 5695 5691 5688 5684 5681 5677 5673 5671 5668 5665 5663 5661 5659 5656 5653 5650 5646
5744 5742 5741 5740 5739 5737 5733 5731 5729 5726 5723 5721 5719 5717 5716 5715 5713 5711 5708 5705 5703 5699 5696 5695 5693 5690 5687 5684 5681 5679 5675 5670 5666 5662 5659 5656 5654 5652 5651 5649 5647 5645 5643
5735 5733 5732 5731 5730 5728 5725 5722 5719 5717 5714 5712 5709 5708 5707 5706 5705 5703 5700 5697 5695 5692 5690 5689 5686 5683 5680 5676 5674 5670 5667 5662 5658 5653 5650 5648 5646 5645 5643 5640 5639 5637 5635
5725 5724 5723 5721 5720 5718 5716 5714 5711 5708 5706 5704 5702 5700 5699 5697 5695 5693 5691 5688 5685 5682 5680 5678 5676 5673 5670 5667 5664 5661 5658 5654 5650 5646 5642 5639 5637 5635 5633 5631 5627 5625 5623
5715 5714 5713 5712 5710 5708 5706 5705 5703 5703 5701 5698 5696 5694 5691 5689 5688 5686 5682 5679 5676 5673 5669 5666 5663 5660 5658 5655 5653 5650 5647 5644 5640 5637 5633 5630 5628 5626 5623 5621 5618 5615 5612
5703 5702 5702 5701 5700 5698 5696 5694 5695 5694 5693 5692 5690 5687 5685 5683 5681 5677 5674 5671 5668 5664 5659 5656 5653 5650 5648 5646 5643 5640 5637 5634 5631 5628 5625 5622 5619 5616 5614 5612 5609 5606 5603
5694 5693 5692 5692 5691 5689 5687 5685 5682 5681 5681 5681 5680 5679 5677 5674 5671 5667 5664 5661 5658 5654 5650 5646 5644 5642 5640 5637 5634 5631 5628 5625 5623 5620 5616 5613 5611 5608 5605 5602 5599 5596 5594
5685 5685 5684 5683 5682 5680 5679 5677 5675 5672 5670 5669 5668 5667 5666 5664 5661 5658 5655 5651 5646 5644 5643 5639 5636 5633 5631 5628 5625 5622 5620 5617 5614 5611 5607 5605 5602 5599 5596 5593 5590 5587 5585
5675 5675 5675 5674 5673 5672 5671 5668 5666 5664 5663 5660 5658 5656 5654 5653 5650 5647 5645 5643 5639 5637 5634 5631 5628 5625 5623 5620 5617 5615 5612 5608 5605 5602 5599 5596 5593 5590 5587 5584 5581 5579 5576
5667 5668 5667 5665 5664 5663 5661 5659 5657 5655 5654 5651 5649 5647 5643 5640 5638 5636 5634 5633 5631 5628 5626 5623 5620 5618 5615 5612 5609 5606 5602 5599 5596 5593 5590 5587 5584 5581 5579 5576 5573 5570 5567
5658 5658 5658 5655 5654 5653 5652 5650 5648 5646 5645 5643 5641 5639 5637 5633 5631 5628 5626 5625 5623 5621 5618 5616 5613 5610 5607 5604 5600 5597 5594 5591 5587 5584 5581 5579 5576 5573 5570 5568 5564 5562 5559
5649 5648 5646 5645 5644 5643 5642 5640 5639 5637 5636 5635 5633 5630 5628 5626 5623 5620 5618 5617 5616 5614 5612 5608 5605 5602 5599 5595 5592 5589 5585 5582 5579 5576 5573 5571 5568 5565 5562 5559 5556 5553 5550
5640 5638 5637 5635 5634 5634 5633 5631 5629 5629 5628 5626 5624 5621 5619 5617 5614 5612 5611 5610 5608 5605 5603 5601 5598 5595 5591 5588 5585 5581 5578 5574 5572 5569 5565 5562 5559 5556 5553 5550 5547 5544 5542
5629 5628 5628 5627 5625 5624 5622 5621 5620 5620 5619 5617 5615 5613 5610 5609 5607 5605 5603 5601 5598 5596 5595 5592 5589 5586 5582 5579 5576 5573 5570 5567 5564 5561 5558 5554 5551 5548 5545 5541 5538 5536 5533
5621 5621 5620 5617 5616 5614 5612 5611 5611 5610 5609 5607 5606 5604 5602 5600 5599 5597 5595 5592 5589 5587 5585 5582 5579 5576 5573 5570 5567 5564 5561 5558 5555 5553 5549 5546 5543 5539 5536 5533 5530 5527 5524
5612 5613 5611 5609 5606 5605 5603 5603 5602 5601 5599 5598 5596 5595 5593 5591 5590 5588 5585 5583 5580 5578 5575 5572 5569 5566 5563 5560 5557 5554 5551 5548 5546 5544 5541 5538 5534 5531 5527 5524 5521 5518 5515